Tracking 19709 objects as of 19-Jun-2019
HD Live streaming from Space Station
objects crossing your sky now

MARISAT 1

Track MARISAT 1 now!
MARISAT 1 is classified as:


NORAD ID: 8697
Int'l Code: 1976-017A
Perigee: 36,047.9 km
Apogee: 36,143.7 km
Inclination: 11.5 °
Period: 1,451.6 minutes
Semi major axis: 42466 km
RCS: 5.8066 m2 (large)
Launch date: February 19, 1976
Source: United States (US)
Launch site: AIR FORCE EASTERN TEST RANGE (AFETR)
aabbcc
Your satellite tracking list
Your tracking list is empty




NASA's NSSDC Master Catalog

Two Line Element Set (TLE):
1  8697U 76017A   19170.40755830 -.00000077  00000-0  00000+0 0  9995
2  8697  11.5012 318.8205 0011282 127.7605  61.7202  0.99203998156741
Source of the keplerian elements: AFSPC